Theta_e
332 338 339 339 332 324 325 326 324 326 328 328 325 328 341 344 325 321 343 346 330 334 345 342 338 341 343 344 342 343 348 351 353 354 356 359 358 356 357 355 354 354 352 355 356 351 349 350 351 351 352 352 352 351 351 349 349 347 345 344 342 340 339 339 340 339 338 339 338 337 336 336 337 336 336 336 337 335 333 332 332 332 331 331 330 331 331
333 337 334 335 330 325 325 325 327 328 327 326 326 334 346 342 333 339 347 342 338 339 338 337 337 338 342 342 342 341 344 348 353 358 362 362 359 358 358 356 355 354 352 352 354 353 350 349 351 351 351 352 351 350 349 348 347 346 345 344 342 340 339 339 339 339 339 338 338 337 337 336 336 335 335 337 337 335 333 333 333 332 331 332 333 333 332
325 332 333 332 328 328 323 321 329 329 326 330 326 329 340 335 332 342 343 338 344 343 338 340 343 346 347 345 344 345 348 349 352 358 364 365 363 361 361 360 357 357 356 353 353 354 350 349 351 351 351 351 350 349 348 347 346 345 344 343 341 340 339 339 340 339 340 339 337 335 336 336 335 335 336 337 337 336 335 333 332 333 332 333 333 333 334
319 327 329 328 328 329 322 319 327 328 326 329 329 333 338 331 333 343 338 332 339 344 344 348 352 350 345 343 347 352 354 354 352 355 359 363 365 364 365 367 367 367 367 364 360 354 348 349 351 351 351 350 348 348 347 345 344 343 342 341 341 340 339 339 340 339 339 337 334 334 336 336 337 337 337 337 337 336 335 333 333 333 333 333 333 333 335
318 327 329 331 329 321 319 325 330 330 333 333 331 338 344 341 348 354 342 337 346 350 346 348 349 346 344 346 348 351 355 357 356 358 361 362 365 368 373 379 381 382 381 371 360 351 347 350 351 350 350 349 347 347 345 343 342 341 341 341 341 340 339 339 339 338 336 332 331 334 338 337 337 338 338 337 336 335 334 334 333 333 333 333 334 334 335
318 329 336 332 323 316 322 337 337 333 335 336 334 336 340 343 352 355 348 347 357 356 347 347 346 343 346 348 345 349 356 357 357 361 363 363 363 364 371 384 394 399 390 367 354 351 350 350 351 350 349 348 346 344 341 339 340 340 341 341 341 340 339 338 338 336 335 332 332 336 339 337 337 338 338 337 336 335 335 334 333 333 333 333 334 334 335
324 335 336 321 316 327 344 348 338 336 337 338 341 342 340 343 346 349 347 343 344 348 345 345 345 346 351 351 349 353 359 360 361 362 361 366 366 362 368 377 385 393 382 359 350 353 353 350 351 349 346 344 343 340 339 338 339 340 339 338 338 338 337 336 336 336 336 335 336 339 339 338 339 338 338 337 336 334 334 334 333 334 334 334 335 335 336
328 333 331 321 324 344 358 346 336 340 343 343 344 340 339 345 346 344 347 344 342 343 343 344 349 352 353 350 349 352 358 366 371 367 364 368 369 369 370 367 363 365 362 354 350 352 351 350 350 346 343 342 341 338 339 338 338 339 338 337 336 336 336 336 337 338 337 336 337 339 339 339 339 338 337 337 335 335 335 334 334 334 334 334 335 335 336
332 330 330 335 335 334 342 344 339 340 342 347 349 337 335 347 348 342 345 348 348 347 346 346 347 346 346 345 342 343 347 355 360 360 357 360 365 369 364 357 352 351 351 351 350 349 348 347 346 343 342 341 339 338 338 338 339 338 337 336 336 336 337 337 337 338 337 335 336 337 337 338 338 336 336 335 335 336 335 335 335 334 334 335 335 336 335
340 337 332 336 329 323 335 348 345 338 339 350 359 348 340 346 347 343 345 347 346 346 344 343 343 343 344 342 339 340 342 346 351 352 352 357 363 362 354 348 347 347 346 347 347 346 345 343 342 342 341 340 339 338 338 338 338 337 337 337 337 337 338 337 335 336 336 336 337 337 337 337 335 335 335 335 335 336 335 336 335 334 335 336 335 335 333
344 343 334 329 324 326 341 347 341 337 337 349 362 348 337 343 346 344 345 342 340 340 342 342 345 345 343 338 337 341 344 348 351 352 354 358 356 350 347 348 347 343 343 344 343 344 342 340 340 341 340 339 338 337 338 337 336 336 336 337 336 336 336 334 334 335 337 337 339 339 338 337 336 336 336 335 336 336 335 335 334 333 335 335 333 333 332
340 339 333 330 328 333 342 341 337 336 340 355 354 333 332 347 348 344 345 344 344 347 346 345 345 343 343 342 341 339 342 347 349 350 356 360 357 350 347 347 345 342 342 341 340 340 339 338 339 340 339 339 338 337 338 338 336 336 336 336 336 336 335 334 334 336 338 340 342 341 340 339 337 337 337 336 337 337 335 334 334 334 334 332 331 331 331
339 335 330 328 331 340 341 337 336 338 344 355 344 331 342 355 346 340 343 342 343 346 345 344 343 342 343 346 343 340 342 348 350 348 348 349 350 348 345 345 344 341 340 340 339 339 338 338 338 338 338 337 336 337 337 337 337 336 336 336 336 335 335 335 335 337 340 342 344 342 340 340 339 337 337 337 336 336 335 335 334 332 332 331 331 331 331
342 342 338 331 334 343 340 335 340 345 344 343 337 338 350 352 343 342 344 342 343 345 346 346 344 342 341 343 344 347 353 359 359 355 352 350 349 346 345 345 344 341 339 339 338 337 337 337 337 336 336 336 336 335 335 336 337 336 335 335 335 335 335 336 336 337 339 342 344 343 341 339 338 337 337 337 336 336 335 334 331 330 330 329 330 332 332
348 351 348 339 340 346 338 336 351 356 348 346 349 347 344 341 341 343 343 343 345 345 345 346 344 343 342 343 347 353 360 367 366 359 357 357 352 345 343 344 343 342 340 338 337 337 336 336 337 336 335 336 335 334 334 335 335 335 335 335 335 335 335 335 336 337 339 341 343 343 341 339 337 337 336 336 335 334 332 330 328 328 327 327 330 333 332
349 348 347 343 344 344 338 338 347 348 344 351 359 351 341 339 341 342 342 344 345 344 345 345 345 343 342 343 351 357 357 359 360 356 354 353 348 343 342 342 343 342 340 337 336 336 335 335 336 336 336 336 335 335 335 334 334 334 334 334 335 335 335 336 338 339 340 341 342 341 340 337 335 334 333 333 332 331 329 327 327 327 326 327 331 333 332
346 344 343 345 347 345 338 335 338 339 340 343 344 341 339 339 339 340 342 344 346 346 346 347 349 350 348 349 358 361 357 354 354 355 353 349 345 343 342 341 342 341 339 338 337 335 335 336 336 336 336 336 335 335 335 334 334 334 334 334 335 336 337 338 339 339 340 340 340 341 340 338 335 333 332 330 330 329 328 328 328 327 326 329 333 333 330
343 342 340 341 346 345 338 333 333 334 335 336 335 336 339 339 338 339 342 345 347 347 347 350 354 353 356 364 364 358 355 355 353 352 352 348 343 342 341 340 341 339 338 337 336 336 336 335 335 336 336 335 336 336 337 337 336 335 335 337 337 337 338 339 339 339 339 339 339 339 338 336 335 333 331 329 328 328 328 327 327 327 328 330 332 332 330
342 344 346 346 345 341 338 336 335 333 332 333 333 334 335 336 335 336 337 343 348 349 350 355 359 356 359 367 366 362 363 363 359 358 356 350 344 341 341 341 339 338 337 336 336 336 335 335 335 336 335 336 338 339 339 337 334 333 333 333 334 336 337 337 336 336 337 337 337 336 335 334 332 331 329 328 327 327 327 328 330 330 330 332 333 331 330
346 346 347 347 342 336 336 337 337 337 335 332 332 332 332 331 330 330 332 336 344 352 356 356 359 361 364 364 366 371 375 372 367 364 358 348 343 342 342 341 339 337 336 336 336 335 335 335 335 335 337 340 342 341 338 333 331 331 330 330 331 333 333 332 332 333 335 334 334 332 331 330 329 328 327 326 326 326 327 330 332 332 330 330 330 329 327
346 342 343 345 339 333 333 336 338 340 336 332 331 330 328 328 328 328 330 331 336 345 354 358 359 360 365 369 372 374 376 376 370 363 352 342 340 342 343 341 339 338 337 337 337 337 337 337 336 336 339 342 341 337 334 332 331 331 330 330 331 332 331 331 332 334 334 333 331 330 329 328 327 327 327 327 327 328 329 330 330 328 326 326 326 324 324
344 344 347 347 341 337 336 335 336 338 336 333 331 329 329 330 332 331 331 333 334 335 343 355 361 356 359 369 374 373 378 379 367 354 345 340 339 342 343 342 342 340 339 338 338 337 337 336 336 336 337 339 337 335 334 334 332 331 332 333 333 332 332 331 332 334 333 331 330 329 328 327 327 327 328 328 328 328 327 325 325 324 324 324 323 322 322
342 345 348 348 344 342 340 336 333 334 335 334 332 331 330 332 334 334 333 336 338 335 333 341 349 353 360 367 368 371 375 366 350 344 342 340 339 341 342 343 343 341 340 340 338 335 334 334 334 333 333 335 335 333 333 332 331 332 335 336 336 335 334 333 333 333 332 331 330 329 328 327 327 327 326 324 324 323 323 323 323 324 323 323 322 321 320
335 339 346 348 344 341 338 335 332 331 333 333 331 331 331 330 331 334 334 332 333 332 330 329 331 338 351 358 361 370 372 354 340 340 343 341 339 340 341 342 342 341 341 340 336 332 330 329 330 329 329 330 331 331 330 328 329 333 337 338 337 336 335 334 333 333 333 332 331 328 327 327 326 325 324 322 321 321 322 322 323 323 322 321 321 320 320
329 333 339 340 338 336 334 330 327 328 331 333 331 331 332 333 331 331 330 329 327 326 328 328 324 325 335 343 347 357 360 348 340 342 343 342 341 339 339 341 341 341 340 338 334 331 328 326 326 325 325 327 329 330 329 327 329 335 339 338 337 337 335 335 334 332 332 332 330 327 327 326 325 325 325 324 322 321 320 321 321 320 320 319 319 318 318
328 329 329 328 328 329 329 325 324 327 329 329 328 328 330 332 332 328 325 325 325 322 324 327 326 324 326 332 337 343 348 346 343 344 344 342 341 340 338 339 341 340 338 336 334 331 327 326 326 326 325 325 326 326 327 329 333 337 340 339 336 334 334 335 334 332 331 330 329 328 327 326 326 326 325 324 323 321 319 318 318 318 317 317 316 315 314
326 324 323 323 323 326 327 326 327 328 328 328 327 327 324 324 325 325 322 322 322 321 320 322 325 324 324 327 330 334 341 345 345 343 341 342 342 340 339 339 340 340 338 335 334 332 329 327 327 328 328 327 325 327 331 334 336 337 337 336 335 333 333 333 334 333 331 330 330 330 329 327 327 326 324 323 322 321 320 319 318 317 316 315 314 313 312
324 323 323 323 325 327 328 327 327 328 328 326 325 324 323 322 323 325 324 323 323 322 322 322 323 325 326 327 329 331 337 344 344 340 338 340 341 341 340 339 340 341 339 337 335 333 330 328 328 330 331 331 331 331 333 334 335 334 333 333 333 334 334 333 332 331 331 331 330 330 330 329 327 326 324 323 322 321 321 320 319 318 316 314 313 311 311
323 323 323 324 325 325 325 325 325 325 325 324 322 323 323 325 325 326 327 326 325 325 324 323 324 325 325 326 331 336 340 345 346 341 337 337 339 341 341 341 340 340 339 337 335 333 331 330 330 331 332 332 333 333 332 331 331 331 331 332 332 332 332 332 331 329 329 329 329 330 330 329 328 326 324 324 323 322 320 319 319 318 317 314 312 312 312
323 322 322 323 323 323 323 325 325 323 323 322 322 322 323 323 325 327 328 328 328 328 324 322 324 325 322 324 332 338 340 341 341 339 338 337 337 337 339 341 340 338 336 335 334 333 331 332 332 330 329 330 330 330 330 330 329 328 329 331 331 330 330 330 329 328 328 328 329 330 330 329 329 328 326 324 323 322 320 319 319 318 316 314 313 313 313
322 322 322 322 322 322 323 325 324 323 323 322 321 321 322 323 325 328 329 329 329 328 325 324 325 324 321 322 327 334 337 338 337 337 336 337 336 336 338 338 337 335 334 333 333 332 332 332 331 330 329 329 328 328 329 330 329 329 330 330 330 330 330 330 330 329 329 329 329 329 329 328 328 328 326 325 324 322 321 320 320 318 316 314 313 314 315
322 323 323 324 325 324 324 325 325 324 323 323 322 322 321 321 323 325 326 327 327 326 325 326 326 323 321 321 322 326 333 336 335 333 334 334 335 336 337 336 334 333 333 333 333 333 332 331 331 330 330 329 329 329 330 330 330 330 330 330 331 331 330 331 330 330 329 329 329 329 328 327 326 325 324 324 323 323 323 322 321 318 316 314 314 315 316
323 324 325 325 326 325 326 327 327 326 325 324 324 325 323 323 323 323 323 323 323 324 325 326 323 320 321 321 320 323 330 335 335 334 332 332 332 334 334 333 331 331 331 331 331 331 330 329 329 329 328 327 328 329 330 330 331 331 331 331 330 330 329 330 330 329 329 329 328 328 327 326 325 324 323 323 322 322 322 322 321 319 316 316 316 315 313
323 324 323 324 325 325 325 326 327 328 327 325 325 327 326 323 323 323 323 323 323 324 324 324 322 321 322 322 321 324 331 339 342 339 332 329 330 331 331 330 329 330 330 330 329 329 329 330 330 329 328 327 327 329 329 329 330 331 331 330 329 327 328 328 329 328 328 328 327 327 327 325 324 323 322 322 322 320 320 320 319 318 317 316 315 313 310
322 323 323 324 325 325 325 326 326 326 326 324 324 325 324 321 319 322 324 324 324 324 323 322 322 322 323 322 322 324 330 337 340 335 329 329 330 330 330 329 329 329 329 329 329 329 329 330 330 329 328 327 328 328 328 329 330 330 329 328 327 326 326 327 327 327 327 328 327 326 325 323 322 322 321 321 320 319 318 317 316 316 315 313 311 310 309
320 322 324 325 323 322 324 325 324 324 324 325 325 324 323 320 319 321 323 324 324 324 324 323 323 322 322 322 322 323 328 333 333 330 329 330 330 329 329 329 328 328 328 328 328 328 328 328 329 328 327 327 328 328 327 328 329 328 327 327 326 326 325 326 326 326 326 326 325 324 322 321 320 320 320 319 318 317 317 316 315 314 313 312 310 309 308
319 321 324 324 321 319 319 320 320 321 322 322 322 322 322 321 320 322 324 325 325 324 323 322 322 322 322 323 324 326 330 333 332 330 330 330 329 329 328 328 328 328 327 327 327 327 328 329 329 327 326 327 327 327 327 327 327 326 326 326 326 326 325 325 325 324 324 324 323 322 321 320 319 319 319 319 318 317 317 317 316 315 313 312 311 310 308
319 319 321 321 319 318 318 318 319 320 321 321 321 320 321 321 321 322 324 324 325 324 323 323 323 323 323 324 327 329 331 331 329 328 328 329 328 328 327 326 327 327 326 326 327 328 329 330 328 326 326 326 325 325 326 326 325 325 325 325 325 325 324 323 323 323 323 322 322 321 321 320 320 319 319 318 318 317 317 317 317 316 314 313 311 310 308
320 320 320 319 319 319 319 319 319 319 320 321 321 320 320 322 322 322 324 325 324 324 324 324 324 325 324 324 326 328 329 329 327 326 326 327 328 327 327 327 327 327 327 327 327 327 328 327 325 325 325 324 324 324 325 324 323 324 324 324 324 323 322 322 322 322 322 321 321 320 320 319 319 319 318 317 317 317 316 316 315 315 314 313 312 310 308
323 322 320 319 320 319 319 318 319 319 320 321 320 320 322 323 323 323 324 325 324 325 325 326 326 325 324 323 324 326 327 328 328 326 325 326 326 327 327 327 327 327 327 327 326 326 325 324 323 323 324 323 323 323 323 323 322 320 320 322 323 322 322 321 321 321 321 321 320 320 319 318 317 317 317 317 317 316 316 315 313 313 313 313 311 310 309
322 321 319 319 320 319 319 319 319 320 320 320 321 322 323 323 324 324 325 325 325 325 326 325 325 325 325 324 324 325 326 327 327 326 325 325 324 324 325 326 325 325 325 325 324 325 324 322 322 323 323 322 321 320 319 319 319 316 316 318 320 321 321 321 321 321 320 320 319 319 319 318 317 317 317 317 316 316 315 314 313 312 312 311 311 310 309
321 321 320 320 320 320 320 320 320 320 320 321 322 322 322 322 324 324 324 324 325 325 325 324 325 325 325 325 324 325 325 326 325 325 324 323 322 322 323 324 324 324 324 323 323 324 324 322 321 321 320 319 319 318 317 317 317 316 314 313 313 313 315 317 319 320 320 320 320 319 319 318 317 317 316 316 315 315 314 313 313 312 311 311 310 310 309
322 321 321 321 320 320 322 322 321 320 321 322 323 323 321 322 323 324 323 324 325 324 322 322 323 323 324 324 323 324 324 324 324 324 323 322 322 322 323 325 324 324 323 323 323 323 322 321 320 319 318 318 319 318 317 315 315 314 312 311 310 310 310 310 312 314 315 317 318 319 318 318 316 315 314 314 314 313 313 313 312 312 312 311 310 309 308
322 321 321 320 321 321 322 321 321 321 322 322 323 323 322 322 324 323 323 324 324 323 321 320 321 322 322 323 323 323 322 323 323 323 323 323 323 324 324 324 324 324 323 322 321 321 320 320 319 318 318 318 318 317 316 315 314 312 310 309 309 309 309 309 309 309 309 310 311 312 314 315 315 314 313 313 313 313 313 312 312 312 311 310 309 308 307
322 322 322 322 322 322 321 321 322 322 323 322 322 322 321 322 323 324 324 323 323 323 322 321 321 322 322 322 323 322 323 323 323 323 324 325 325 324 324 324 324 323 323 321 320 319 319 319 317 318 318 317 316 316 314 313 312 310 309 308 308 308 308 308 308 308 307 307 307 307 309 311 313 314 313 312 311 310 310 310 310 311 310 309 307 306 306
322 322 323 323 323 323 322 322 322 323 322 322 322 322 321 322 323 324 323 323 323 323 323 322 322 323 322 322 322 322 322 323 323 323 324 325 325 325 323 323 323 322 321 319 318 318 318 317 317 318 316 313 311 309 308 307 307 308 309 308 308 307 307 307 306 306 306 306 306 306 307 309 310 311 310 309 308 307 306 306 308 309 309 308 306 306 305
321 322 322 323 324 324 323 323 323 322 322 323 323 322 322 322 323 323 323 323 324 324 323 323 323 323 322 322 322 322 322 322 322 323 323 323 324 324 323 322 322 321 320 319 318 318 317 317 317 316 313 309 307 306 306 306 308 309 309 308 308 307 307 306 306 305 305 305 305 306 307 307 308 309 307 306 306 306 305 306 307 308 308 307 306 306 305
321 321 322 323 324 324 324 324 323 322 322 323 323 323 323 324 324 324 324 323 323 323 323 323 323 323 323 323 323 322 322 322 323 323 322 322 323 323 322 322 321 322 321 319 318 317 317 317 316 314 310 307 307 307 307 308 309 309 308 308 307 307 306 306 305 305 305 304 304 305 305 306 306 307 306 305 305 305 305 306 307 307 307 306 305 305 305
321 321 322 322 323 323 323 323 322 321 321 322 323 323 323 324 324 323 323 323 322 322 322 322 322 322 322 323 323 322 322 322 322 322 322 322 322 322 322 321 322 322 321 319 317 316 316 316 315 311 309 308 308 308 307 308 309 308 308 307 307 307 307 307 306 305 304 304 304 304 304 305 305 305 305 305 305 304 304 305 305 305 304 304 304 304 304
321 322 322 322 323 323 323 322 322 321 322 323 323 322 322 323 323 322 322 322 323 322 321 321 321 320 321 322 322 322 322 322 321 322 321 321 321 322 321 320 320 321 321 319 317 316 316 315 313 310 308 308 308 308 308 308 308 307 308 308 307 306 306 306 305 305 304 304 304 303 303 304 304 305 305 305 304 304 304 304 304 303 304 304 304 304 304
321 322 322 322 322 322 322 322 322 322 322 323 323 323 323 323 323 323 322 322 324 323 321 320 321 320 320 320 321 321 321 321 321 321 321 321 321 321 320 319 319 319 319 319 318 317 316 315 313 311 309 309 309 309 308 308 308 308 308 308 307 306 306 306 305 304 304 304 303 303 303 303 304 304 305 304 304 304 303 303 303 303 303 303 303 304 304
320 322 323 323 323 323 322 322 322 321 321 321 321 322 322 323 323 322 321 321 322 323 322 321 320 320 319 320 320 320 320 320 321 321 320 320 320 320 320 319 318 318 318 318 317 316 315 314 313 311 309 308 308 309 309 309 308 308 308 308 307 307 307 306 305 304 304 304 303 303 303 303 303 304 304 304 304 303 303 303 304 303 303 303 303 303 303
Wind_Speed
14 12 10 9 11 12 11 10 10 11 11 9 9 7 7 9 8 7 9 12 16 14 12 13 14 13 13 14 13 13 12 11 11 11 12 12 12 12 12 11 12 12 13 14 13 15 21 25 25 26 28 30 31 33 36 37 36 36 36 37 36 36 35 31 24 23 24 27 28 25 22 23 24 23 21 22 23 21 17 15 15 14 12 11 10 9 10
11 13 11 9 10 10 12 14 13 11 11 11 9 7 9 12 9 8 12 15 14 13 14 16 14 10 10 10 10 10 10 10 10 11 11 12 12 12 12 12 12 12 12 13 13 13 17 21 23 25 27 28 29 30 32 31 31 32 34 34 32 30 29 26 23 25 28 29 29 25 23 25 25 23 22 24 24 21 19 17 16 14 14 13 11 10 11
9 11 9 7 7 9 12 15 12 7 6 6 3 2 5 7 3 4 13 15 11 9 10 9 5 4 6 7 9 9 9 10 11 11 11 11 11 10 11 10 10 9 9 9 9 9 14 19 24 25 24 24 26 28 31 33 36 39 39 37 33 28 29 30 31 34 34 32 26 22 25 28 25 23 24 26 25 23 21 19 17 16 16 15 14 13 13
5 6 6 7 6 6 5 4 4 3 4 2 2 2 3 4 3 4 7 9 9 7 5 6 6 6 9 11 10 9 7 8 10 10 9 8 8 8 8 8 7 7 7 7 6 8 13 18 21 21 22 24 26 31 37 38 37 35 32 31 30 29 35 39 38 36 35 28 18 18 28 31 27 26 27 27 26 24 23 21 18 17 17 16 16 15 15
3 4 4 7 6 5 2 3 2 3 6 7 6 3 1 2 6 7 5 7 7 2 2 5 6 7 10 10 7 6 6 6 8 8 8 7 7 7 7 7 7 7 7 7 10 13 15 15 17 21 26 30 33 37 35 29 27 28 29 29 29 30 34 35 33 32 28 17 13 22 31 32 29 29 29 27 26 25 23 21 20 18 18 18 17 17 18
3 4 2 6 4 4 4 4 3 5 8 11 10 5 2 3 5 6 3 5 6 8 8 6 6 6 6 6 5 5 7 7 7 7 8 8 8 8 8 8 9 9 8 8 10 12 11 10 13 20 25 27 29 27 23 22 28 33 32 29 27 29 32 31 29 26 18 12 20 29 33 32 32 32 31 29 27 25 23 22 21 21 20 19 19 19 20
4 1 4 5 4 6 5 4 4 6 9 13 12 6 3 6 8 10 8 4 5 12 14 10 8 6 4 5 5 6 8 8 8 8 8 8 9 8 8 8 7 5 4 4 6 8 10 11 14 18 17 14 14 14 15 17 20 21 20 20 21 26 30 29 24 18 13 18 27 32 32 33 34 33 32 30 28 25 24 24 24 23 21 20 20 21 21
3 3 4 4 5 5 5 2 5 6 6 8 9 7 6 6 6 9 11 7 5 9 12 11 11 9 6 4 2 5 7 6 7 8 9 8 8 8 7 7 6 6 8 12 15 16 17 18 20 22 20 20 22 21 21 25 25 22 23 24 24 27 29 26 20 17 20 26 31 32 32 33 34 33 32 31 28 27 26 26 25 24 22 22 21 21 20
3 5 3 1 0 4 6 4 1 1 2 4 7 5 3 6 5 4 9 9 6 7 9 8 9 10 8 6 5 5 6 6 6 7 7 7 6 5 4 5 8 12 17 20 21 21 21 21 24 26 26 29 31 29 30 34 34 32 31 31 34 35 33 32 30 27 27 30 31 31 32 33 33 33 32 31 30 29 28 28 26 24 24 23 21 20 19
2 5 4 3 3 2 3 6 6 3 3 7 9 7 2 6 8 4 7 12 10 10 10 8 8 7 8 6 3 7 5 1 4 6 6 6 7 8 10 12 13 16 21 22 22 23 23 23 25 29 31 33 33 32 32 35 37 37 36 37 38 37 36 39 39 33 31 32 32 32 34 35 34 34 33 33 32 31 29 28 26 24 23 22 19 17 17
2 5 5 2 3 2 4 7 8 5 3 7 8 7 2 6 10 7 4 10 10 11 10 9 7 7 6 3 4 7 4 5 8 10 9 8 8 10 13 17 18 19 21 23 23 25 25 25 28 31 33 35 34 32 33 35 35 35 35 36 37 38 38 40 39 34 31 32 33 33 35 37 36 35 34 34 33 32 30 28 25 23 21 18 14 13 14
3 5 4 2 2 1 3 6 9 7 0 6 9 5 2 7 9 6 4 7 5 6 7 6 6 6 6 6 5 7 1 7 9 9 9 9 9 10 13 17 21 23 24 25 24 23 24 27 29 32 33 34 33 32 34 34 33 34 37 38 40 41 40 40 38 34 32 34 36 36 37 38 37 36 35 34 33 32 30 28 25 19 12 8 8 10 12
4 5 3 0 1 1 5 9 10 10 4 8 8 3 5 5 6 4 10 9 6 7 8 7 6 4 4 5 5 5 2 9 8 7 8 9 10 11 13 16 20 22 22 22 23 23 26 29 31 31 32 30 28 29 30 30 32 37 40 41 40 39 37 35 33 31 30 33 35 35 37 37 35 34 34 33 31 29 27 23 15 6 3 3 8 12 12
3 4 4 2 0 1 7 11 9 6 4 5 3 4 4 3 1 7 11 10 7 8 9 7 6 4 2 2 2 2 6 9 8 7 8 9 9 10 13 16 19 20 18 19 21 23 27 30 32 32 31 27 26 27 28 31 36 38 38 37 37 35 32 30 29 28 30 33 34 34 35 34 32 30 29 27 25 23 21 16 12 10 8 10 14 14 12
2 3 4 2 1 5 10 10 6 5 4 4 5 3 1 2 2 9 9 7 7 7 7 6 5 4 3 3 4 5 7 7 7 7 7 8 8 9 11 12 15 18 17 18 20 23 26 29 30 31 29 27 26 27 29 34 35 33 33 35 34 30 28 27 26 25 25 24 23 23 23 22 22 23 22 21 21 20 18 13 11 11 13 14 14 14 12
2 3 2 2 3 6 8 7 5 4 4 2 3 4 2 2 3 7 7 6 6 6 6 6 6 6 5 3 4 5 5 6 6 6 7 7 8 9 9 11 13 15 16 17 18 22 25 26 26 28 29 27 25 26 30 33 31 29 30 31 28 27 26 24 21 19 18 16 14 15 17 17 18 19 20 20 21 20 17 11 7 10 15 15 15 15 13
4 5 2 3 4 5 5 10 8 6 7 5 3 5 5 3 4 5 6 7 7 6 6 7 8 6 4 3 4 4 4 4 5 5 6 7 9 10 11 13 14 15 16 19 20 21 22 23 25 26 26 24 23 25 27 26 24 25 25 23 20 17 13 9 9 13 18 20 21 23 24 24 24 24 23 22 20 18 14 11 10 15 16 15 16 16 12
4 5 1 2 3 5 7 10 10 8 8 6 5 7 7 5 5 5 6 7 7 7 8 8 6 3 2 4 4 3 3 4 4 5 5 6 8 11 12 14 14 13 15 18 20 19 19 21 23 23 22 22 22 20 15 11 11 12 11 11 12 13 12 8 7 12 17 20 22 24 25 25 26 26 26 23 18 14 11 10 12 14 14 14 15 14 11
3 3 2 2 4 6 8 10 9 8 8 7 7 8 6 5 5 6 5 6 7 8 9 8 4 1 2 5 4 3 4 4 4 5 6 5 6 9 11 14 16 16 15 15 15 14 15 17 18 18 18 18 15 12 11 14 16 16 14 10 9 12 14 13 15 18 21 22 22 22 21 22 24 24 21 16 12 10 10 11 11 11 11 12 13 11 9
3 3 3 2 6 8 7 8 7 7 7 7 8 8 6 6 8 8 8 8 8 7 6 5 4 3 2 3 4 3 3 4 4 4 5 5 6 9 12 15 17 16 15 13 12 12 13 15 17 17 15 11 11 14 17 17 15 14 13 10 10 14 17 19 19 21 23 23 24 24 23 22 21 18 14 11 9 9 11 11 11 11 11 11 11 10 9
5 3 3 2 7 9 8 8 7 5 5 6 8 9 9 10 11 11 11 10 7 6 5 4 4 5 3 1 4 4 3 3 3 2 3 4 7 9 10 12 13 13 13 14 14 14 14 16 18 16 13 15 18 18 16 12 8 5 6 9 13 18 20 21 21 22 23 24 26 25 23 20 17 13 11 10 10 10 11 11 12 12 10 9 8 7 7
4 3 4 4 6 5 3 5 6 4 3 7 10 9 9 11 10 10 11 11 10 8 6 4 3 3 3 2 2 3 2 2 2 1 2 4 6 7 9 10 11 12 14 16 17 16 15 16 18 17 17 20 21 18 13 8 3 3 5 10 15 19 21 20 20 23 23 23 23 22 20 17 15 12 10 10 10 12 13 12 10 8 6 5 5 5 5
3 3 4 4 5 5 2 1 4 5 6 9 8 5 6 7 7 6 6 6 7 8 6 4 4 5 6 4 3 3 4 4 5 5 5 6 7 8 11 14 15 15 17 18 18 17 18 19 21 20 18 17 17 16 13 7 2 9 12 16 18 20 22 21 22 23 22 21 21 20 18 17 16 16 15 13 12 12 11 9 7 5 4 3 3 4 4
3 4 4 4 5 5 3 2 3 4 5 8 7 3 4 5 5 4 4 2 2 5 6 5 6 6 6 4 5 6 6 5 7 9 10 10 10 12 13 15 17 17 18 19 20 21 22 23 24 21 16 14 12 9 5 4 8 13 16 16 18 20 21 21 21 21 20 21 21 20 19 19 19 19 18 16 13 10 8 7 6 5 4 3 3 3 4
5 5 4 4 6 5 4 3 4 5 5 6 7 6 6 6 6 5 5 4 4 5 6 7 9 12 11 5 5 7 6 7 11 14 13 12 12 13 14 16 18 19 20 21 23 25 24 23 21 19 17 15 11 6 8 12 15 17 18 18 18 17 18 18 19 20 20 21 22 22 21 21 20 18 17 16 14 12 10 8 7 6 5 4 4 4 3
7 7 7 7 7 4 3 4 7 8 8 8 8 7 7 8 8 7 7 6 6 7 7 6 9 14 15 11 5 4 4 6 11 14 12 10 11 13 15 18 20 21 22 23 24 25 24 23 22 19 16 16 16 14 14 16 18 20 20 17 13 11 13 16 18 19 20 20 20 21 21 21 20 18 17 17 17 17 16 13 11 9 8 7 6 5 5
7 6 7 9 8 7 7 7 6 7 8 8 9 8 8 10 11 10 10 10 11 12 11 11 12 14 16 17 14 9 6 4 7 11 11 11 14 16 19 21 21 22 23 23 23 22 22 20 18 15 13 15 17 17 17 18 19 17 15 11 8 7 9 12 15 17 18 17 17 20 21 21 21 21 20 20 20 20 19 17 16 15 12 10 9 9 9
9 7 8 9 7 5 5 6 7 7 8 9 8 8 9 11 11 10 10 11 12 12 12 15 15 12 11 15 16 11 8 6 4 7 9 13 16 18 20 22 23 23 23 22 22 21 18 15 14 13 12 14 18 19 19 18 16 13 10 8 7 6 7 10 13 14 14 13 15 18 20 22 23 23 22 21 21 20 19 19 18 17 15 13 12 12 11
9 8 9 8 7 6 7 8 9 9 9 9 9 9 10 10 9 9 9 8 8 8 9 13 14 12 10 13 14 10 7 6 6 8 12 15 19 20 22 23 23 22 21 19 19 19 16 15 16 16 15 16 18 17 15 13 12 9 8 8 7 7 7 9 10 10 10 11 12 14 17 19 20 21 21 21 20 20 19 18 18 18 18 16 15 14 12
7 8 8 8 8 10 11 9 8 9 8 9 9 9 9 9 8 7 7 7 7 7 7 9 11 12 13 13 12 10 10 10 10 11 11 12 14 17 21 21 17 14 13 14 14 15 15 16 17 16 14 13 13 12 10 9 8 7 7 8 8 8 7 7 8 8 9 10 10 12 13 15 17 18 19 20 19 20 19 18 18 19 19 18 18 16 13
10 11 11 10 9 10 9 7 6 7 7 7 8 9 9 9 8 6 7 7 6 6 7 8 8 9 11 13 15 15 14 12 9 5 2 3 5 10 17 20 17 12 12 15 17 19 21 22 20 17 15 13 11 10 9 9 9 9 10 10 10 9 8 7 7 8 9 10 11 13 14 15 17 17 18 18 18 19 19 18 17 18 19 19 18 16 12
11 12 12 10 9 9 8 6 6 7 7 7 8 7 6 6 6 6 6 6 6 6 8 7 7 10 14 17 20 20 15 7 3 3 4 4 3 5 10 15 16 16 17 20 22 24 24 22 18 16 15 12 9 9 10 11 13 14 13 13 12 10 9 9 9 9 10 11 13 15 16 17 18 18 17 17 18 19 19 19 18 18 18 19 19 16 11
10 8 7 7 7 7 7 6 6 6 6 6 5 5 4 5 5 5 6 6 7 8 8 7 10 16 20 20 21 21 13 4 3 5 6 6 6 8 10 13 15 17 17 16 15 15 15 16 15 13 11 9 8 9 11 13 15 15 14 13 13 11 11 11 11 11 12 14 16 17 17 17 18 17 17 18 19 19 19 20 20 18 18 19 18 15 11
8 6 4 3 4 5 4 4 5 5 5 5 5 4 4 5 5 5 6 7 7 7 9 10 13 17 18 17 20 19 11 5 4 4 6 9 10 11 15 17 18 18 16 14 14 14 13 12 13 13 12 11 10 10 10 12 13 13 13 12 12 12 11 11 11 12 13 14 15 16 16 16 16 17 18 19 19 19 19 20 20 20 19 18 16 13 11
7 7 6 5 5 5 5 5 5 5 5 6 6 5 5 6 6 6 6 6 6 7 10 12 15 16 14 13 14 15 11 7 6 6 9 12 13 14 17 19 19 18 15 14 17 19 16 13 14 15 13 12 11 9 9 11 11 11 11 11 10 11 10 11 11 12 13 13 13 14 14 13 12 13 15 18 19 18 19 19 20 20 20 19 17 14 11
9 7 6 6 6 7 6 5 4 4 5 5 5 5 6 8 9 8 6 7 8 10 12 13 14 14 13 11 11 13 14 12 11 12 13 14 15 17 19 18 18 18 16 15 17 19 17 15 16 15 14 14 13 11 10 10 10 10 10 10 10 10 10 10 10 11 11 11 12 12 11 9 9 8 10 13 15 15 16 17 18 19 19 19 18 15 12
8 7 5 5 7 7 6 7 7 7 6 5 5 5 6 8 9 9 8 9 11 13 14 14 13 11 11 13 14 15 15 12 11 13 15 18 20 19 17 16 16 15 13 12 16 18 17 16 16 15 15 15 14 13 11 10 9 9 10 10 10 11 10 10 10 9 9 10 10 9 8 7 7 8 9 10 12 14 15 15 16 17 18 18 17 16 14
8 8 6 6 7 7 8 9 10 9 7 6 6 7 8 9 10 10 9 10 12 14 15 15 15 14 14 13 10 6 5 4 3 4 8 15 21 19 14 14 16 15 13 15 19 19 17 15 14 14 14 14 12 11 10 8 7 8 9 10 10 10 10 10 9 9 9 10 9 7 6 6 7 10 11 11 12 14 13 12 13 15 18 19 19 18 16
7 7 7 7 7 8 8 9 10 11 9 7 6 8 11 11 12 12 11 12 14 16 15 16 16 15 13 10 6 4 5 6 7 6 8 10 14 18 15 14 17 17 17 19 21 19 15 15 14 12 11 10 8 8 7 7 6 7 8 9 9 8 8 8 8 8 9 10 9 8 8 8 8 10 10 10 11 11 11 11 12 15 18 20 20 19 17
4 5 6 6 6 7 7 7 8 10 11 9 7 7 9 11 12 13 13 15 18 18 16 15 14 11 10 9 7 7 9 11 15 17 12 10 8 11 12 11 14 18 20 20 20 17 14 13 12 10 9 8 8 7 7 7 7 7 6 7 9 9 8 8 8 9 10 11 11 11 11 10 9 9 9 9 10 10 10 11 13 15 18 19 19 18 16
5 6 7 7 6 6 6 6 7 9 11 10 8 7 8 10 11 12 12 15 17 18 15 12 11 10 9 8 6 5 6 7 11 15 13 8 4 4 7 7 12 19 20 19 17 15 13 11 11 11 11 11 11 10 9 8 7 7 6 4 5 7 9 10 11 12 12 13 13 14 14 14 13 12 11 11 11 12 12 14 16 16 17 19 19 18 17
6 7 7 6 6 6 7 7 7 8 10 10 8 8 10 12 12 12 14 16 15 14 13 12 11 11 8 4 2 2 5 7 8 9 8 6 4 3 5 7 12 17 17 16 15 14 13 13 14 15 15 14 13 12 10 9 7 5 5 5 5 4 2 4 9 13 15 16 17 17 17 16 16 16 15 14 14 15 15 17 18 17 17 17 17 16 17
6 7 6 5 6 8 9 9 8 7 8 9 10 12 13 14 13 14 17 17 14 11 11 13 14 14 13 6 3 6 8 9 11 11 10 6 7 9 9 13 15 15 15 14 14 14 15 16 16 16 16 15 13 10 9 7 4 3 3 4 5 7 7 7 4 1 5 10 14 18 20 21 19 18 17 17 17 17 18 18 19 19 18 16 14 13 13
8 8 7 7 8 10 10 9 8 6 6 9 12 14 13 13 13 14 15 14 12 9 9 10 12 15 17 13 5 5 7 8 9 10 10 7 4 6 11 16 16 15 15 15 14 15 16 17 16 15 14 12 9 6 5 4 2 2 3 4 4 3 4 5 6 6 5 4 4 8 14 20 23 22 19 17 17 18 18 19 19 20 19 16 14 12 11
10 9 9 9 10 10 10 10 9 7 8 11 14 14 12 12 12 12 11 10 10 8 7 8 9 11 12 11 6 1 3 6 7 7 7 5 3 5 11 14 14 15 16 16 15 16 16 15 14 13 11 8 6 4 4 3 3 4 4 4 2 2 3 4 4 5 6 7 8 9 9 13 20 22 19 15 13 13 13 14 16 19 19 17 15 12 13
11 10 10 9 9 10 12 12 11 11 11 11 11 12 12 11 11 10 9 8 8 7 6 7 8 8 7 4 1 0 2 3 5 6 5 4 3 7 11 13 13 14 15 15 15 16 15 13 12 11 8 6 5 4 4 4 5 6 4 2 1 2 4 5 5 5 7 8 8 9 9 9 13 16 14 12 12 12 11 11 13 16 18 18 15 13 14
12 11 10 9 10 11 13 13 11 10 9 7 6 8 11 11 10 9 8 8 7 7 6 6 5 5 3 1 2 4 5 3 3 4 5 4 4 8 11 12 12 12 12 12 13 14 13 12 11 10 8 7 6 4 5 6 7 7 5 2 3 4 5 6 6 6 6 6 6 8 9 5 8 13 12 11 11 11 11 12 14 17 18 18 16 15 15
12 11 10 10 11 12 12 12 9 7 7 7 7 9 10 9 8 8 8 7 7 7 7 6 5 3 2 2 2 4 7 6 3 3 5 6 7 9 11 12 12 12 11 11 12 13 13 12 11 10 10 9 7 6 8 8 7 6 5 4 5 7 8 9 8 7 6 5 4 6 9 6 3 9 11 10 9 9 11 12 15 16 16 16 15 14 14
14 13 11 9 10 11 11 10 7 6 7 10 11 11 10 9 9 9 8 7 7 9 10 9 8 6 4 3 3 1 2 2 1 2 6 9 9 9 11 12 12 13 13 13 13 14 13 12 11 11 11 9 8 8 9 9 8 7 6 5 6 8 10 12 12 10 7 5 5 5 6 5 3 5 8 9 9 10 12 13 14 14 13 12 12 12 13
13 12 9 7 8 9 9 8 8 9 11 13 13 11 10 9 9 9 10 10 10 10 11 11 11 10 8 6 5 4 2 2 2 2 7 10 11 12 12 13 13 14 14 13 13 13 12 12 12 13 13 11 10 9 9 9 8 7 6 5 5 6 8 11 12 12 10 8 6 6 7 7 7 8 9 9 10 10 12 13 13 12 12 11 11 11 13
11 10 9 8 8 9 9 9 9 10 12 14 13 12 11 10 10 9 10 9 9 10 11 11 11 11 10 7 5 4 3 2 2 2 5 10 13 14 14 13 13 13 14 14 13 13 13 14 15 16 16 15 13 12 11 11 9 8 6 6 5 4 4 6 9 11 12 10 8 7 6 6 6 8 10 12 12 11 12 13 13 12 12 12 11 11 12
11 11 11 10 9 9 10 10 11 11 12 14 14 13 11 10 10 11 10 8 7 8 9 8 8 9 8 6 4 4 2 2 2 2 4 7 10 12 14 15 16 16 16 16 16 15 15 16 17 18 19 19 17 15 13 13 12 10 9 8 6 4 4 5 6 8 10 11 10 9 7 6 5 5 8 10 10 10 11 12 13 12 11 11 12 12 12
Wind_Direction
215 212 216 205 185 190 195 190 199 212 205 175 163 180 175 151 159 212 217 182 177 191 199 197 195 183 174 175 171 166 166 170 174 175 176 184 191 195 198 199 197 196 198 199 200 201 202 201 198 197 198 197 196 196 198 197 194 191 190 188 188 185 182 181 184 187 193 198 200 204 207 210 217 222 225 233 236 230 218 213 217 224 239 255 257 256 260
214 210 212 193 178 190 196 197 206 215 213 197 184 188 175 170 189 196 176 181 193 193 194 201 199 183 171 167 157 153 159 165 170 172 176 186 196 197 200 205 204 203 205 203 200 201 201 200 197 197 197 195 195 195 196 195 190 187 187 186 186 182 173 169 178 190 200 206 205 205 208 212 218 222 225 231 231 224 221 225 233 241 255 262 261 269 274
208 206 199 171 163 181 190 198 205 203 208 212 198 184 169 170 213 187 163 178 208 216 198 190 171 126 121 137 149 159 166 164 164 171 181 189 196 201 206 210 211 213 216 215 211 204 203 203 200 197 194 190 188 190 192 192 189 187 185 183 183 178 166 169 186 196 201 203 203 209 215 216 218 221 225 230 230 227 227 231 238 247 254 255 257 268 273
202 207 164 129 127 132 144 192 210 137 129 134 76 81 137 146 130 94 131 178 218 238 197 137 119 135 146 154 161 162 164 161 157 165 178 185 191 201 210 214 216 220 228 230 222 213 215 211 201 192 183 179 182 188 191 192 187 181 177 177 182 180 172 179 192 196 194 194 201 221 224 218 216 220 224 228 229 228 229 234 243 248 248 252 259 266 268
229 251 136 112 101 97 60 292 257 113 113 114 98 80 66 129 132 121 143 205 218 223 128 128 140 158 157 155 157 146 135 132 136 149 159 166 178 191 197 202 205 210 220 221 214 216 219 211 197 188 181 181 188 191 188 181 167 161 168 180 187 180 172 179 189 187 183 189 214 225 222 217 217 220 223 225 226 227 231 238 244 246 248 254 261 264 266
216 268 110 95 107 160 209 247 197 126 117 114 104 99 96 97 127 137 162 212 176 124 109 116 134 151 150 145 147 139 131 130 140 157 167 170 177 184 190 196 201 205 210 211 209 210 205 188 183 185 186 190 194 186 171 159 158 163 171 179 177 165 164 173 180 178 181 211 224 222 220 218 217 219 221 224 225 228 234 239 241 244 249 255 258 261 263
165 236 74 99 176 210 228 226 153 115 109 110 104 98 87 88 103 103 80 56 134 128 123 123 124 125 125 121 133 151 154 151 155 167 180 181 174 176 186 192 196 202 190 146 135 138 138 144 160 169 173 172 160 139 120 126 141 146 146 145 144 147 155 164 170 178 203 220 219 220 221 219 218 219 221 223 224 228 233 237 240 244 248 252 255 257 259
135 92 79 148 212 264 306 359 100 90 80 89 83 51 8 12 61 94 94 81 82 104 115 126 129 127 120 97 116 194 193 180 165 169 181 184 178 182 190 185 177 167 148 136 133 137 147 155 157 155 151 144 140 135 129 130 133 134 133 136 144 151 156 160 172 200 219 216 215 219 219 217 216 216 218 221 224 228 233 236 239 243 247 249 252 254 255
125 115 102 166 270 333 334 352 78 127 144 141 118 88 360 329 348 70 116 115 99 93 102 117 128 125 107 66 5 291 240 209 188 174 174 173 163 153 134 125 134 137 135 137 141 145 150 152 149 147 147 147 145 143 142 143 147 150 154 159 165 168 170 173 183 204 218 217 216 217 215 212 211 213 217 222 226 229 231 234 237 241 245 246 248 253 257
89 101 78 36 60 55 284 281 292 312 137 151 133 101 15 323 336 342 141 137 135 132 131 140 139 111 83 70 336 297 289 205 112 98 104 120 120 114 109 105 109 119 126 134 142 145 144 145 149 151 151 148 143 140 144 150 154 161 170 174 174 176 180 181 189 205 220 223 223 219 215 214 215 217 220 224 228 230 230 232 237 242 245 246 248 255 263
59 96 98 112 130 158 252 283 313 344 113 135 100 67 359 312 325 317 174 147 143 139 141 151 135 103 96 135 248 284 322 55 81 92 97 100 107 117 126 126 125 129 132 135 140 144 144 148 154 156 155 150 145 144 152 159 164 172 180 180 179 183 187 188 197 212 222 227 226 219 215 217 220 222 224 227 229 229 229 233 238 241 242 242 246 255 262
56 88 114 171 143 119 304 316 324 316 248 100 74 65 280 297 316 329 93 110 109 105 108 105 91 101 143 171 228 262 296 75 88 111 119 119 123 127 131 133 134 137 139 139 142 147 150 154 157 157 156 153 152 155 160 165 170 179 185 186 187 190 191 195 206 217 223 227 225 218 217 221 222 223 225 227 227 226 228 231 234 236 236 238 247 251 248
62 81 104 170 119 24 335 336 323 307 333 64 77 150 219 280 312 33 78 79 70 77 84 81 77 100 157 176 216 238 116 86 91 110 112 112 121 129 134 136 137 139 143 146 148 154 157 157 158 159 157 156 160 164 166 172 180 185 188 191 193 194 197 204 213 219 223 225 224 220 220 222 222 223 225 224 223 223 223 221 213 191 164 243 257 253 245
73 98 98 32 259 287 327 331 323 324 36 88 142 194 208 242 343 71 76 77 75 74 75 81 96 116 154 184 190 117 90 98 109 115 109 103 106 117 129 138 142 142 144 147 150 157 160 160 162 163 160 160 164 167 174 185 191 192 192 194 198 202 206 211 217 222 227 230 228 226 226 225 222 220 219 219 219 215 207 192 163 149 183 237 250 246 244
79 80 75 64 213 284 322 338 345 10 61 163 191 158 163 235 103 81 74 69 73 81 89 98 109 108 84 68 77 78 86 103 113 115 118 118 120 124 132 146 153 148 144 150 156 160 164 166 168 167 165 166 170 176 187 196 196 195 198 202 206 211 214 219 224 229 232 234 233 232 233 231 223 217 215 211 203 193 183 166 151 172 209 239 244 237 240
77 81 90 136 213 275 329 28 55 25 35 144 169 108 76 317 57 81 77 58 51 69 87 88 74 58 45 42 63 77 85 98 111 121 125 127 133 136 136 148 158 152 147 152 161 166 170 171 171 171 172 173 178 188 197 199 196 197 202 207 213 220 225 229 230 227 223 225 234 240 240 236 230 226 219 203 186 178 175 168 175 214 234 243 237 231 234
102 121 170 237 253 286 3 58 65 38 34 44 64 86 81 38 25 66 82 71 52 45 57 64 56 43 26 26 46 67 85 90 103 116 125 136 141 140 140 149 160 163 158 157 163 171 176 176 175 177 178 177 183 198 206 206 204 205 208 212 217 221 220 216 213 218 222 225 231 235 235 232 227 216 201 186 175 175 184 196 222 238 242 236 228 226 225
119 101 71 309 342 358 22 52 62 54 45 34 36 62 67 46 25 40 77 90 85 71 65 61 52 41 70 71 61 71 91 82 86 99 107 126 136 137 144 155 164 168 162 160 166 172 177 182 183 184 184 185 191 201 206 192 181 183 186 187 180 165 151 156 199 231 236 231 228 230 231 227 216 200 185 179 177 180 194 216 230 234 231 224 221 222 222
130 92 349 347 54 40 28 40 48 47 45 41 44 55 56 50 50 51 61 79 83 78 77 80 80 75 109 102 101 116 107 94 94 105 108 119 139 151 162 166 167 166 163 164 168 167 172 182 184 183 187 192 191 178 145 124 121 114 102 107 142 159 168 191 214 224 223 216 209 207 205 199 190 181 176 177 182 188 204 216 218 219 219 216 213 213 220
94 135 218 203 86 69 52 54 46 25 28 40 49 53 49 40 38 36 39 48 56 59 68 90 93 46 26 87 101 99 92 85 75 79 97 121 147 163 172 173 169 164 159 158 159 158 164 176 180 181 184 180 157 138 125 117 117 119 124 148 194 206 201 202 204 201 195 187 177 173 172 171 170 171 175 185 193 197 202 205 204 202 200 198 200 208 223
80 108 207 171 87 64 49 56 52 13 1 32 44 47 47 40 30 23 24 31 40 47 42 41 52 38 360 62 108 100 98 99 88 68 86 135 160 167 170 169 165 158 151 150 150 149 155 169 176 174 157 136 126 122 115 107 106 125 165 187 208 218 217 211 201 187 178 173 168 167 167 168 170 175 184 194 194 188 185 188 190 191 189 189 199 215 227
134 182 203 171 120 99 72 74 83 76 50 47 38 29 37 46 36 21 19 15 7 13 19 7 4 1 309 277 122 119 155 167 157 131 108 140 158 157 147 146 147 147 145 145 142 136 139 151 156 145 126 119 118 115 110 103 76 300 237 197 196 207 210 202 187 175 171 171 172 173 174 175 174 171 169 172 175 173 171 173 177 182 188 198 216 230 235
179 186 152 134 118 125 167 149 99 100 93 81 63 24 28 53 48 36 44 27 342 336 343 330 310 295 272 242 174 178 218 197 162 160 170 167 160 152 145 141 140 143 145 143 136 128 123 124 123 113 103 107 115 115 112 108 284 260 225 194 188 196 198 190 184 181 180 180 181 181 181 181 177 166 154 150 156 163 165 165 171 185 198 204 220 232 229
88 82 113 119 97 107 149 164 98 86 91 98 96 63 34 51 49 46 68 85 301 326 341 340 340 333 304 251 196 194 212 193 165 172 185 181 167 160 154 148 145 149 153 149 142 135 128 122 120 121 127 134 132 125 133 197 231 231 218 203 199 202 200 195 194 193 190 186 185 183 180 177 173 167 159 152 148 151 159 166 172 179 184 186 192 203 213
99 103 121 108 91 106 144 136 79 51 47 72 76 56 35 37 45 49 45 32 19 18 11 0 360 1 353 321 234 211 204 189 179 181 186 181 168 161 160 160 160 160 161 158 154 149 144 139 139 146 158 165 169 194 231 226 215 211 212 212 209 206 205 202 198 195 192 187 185 184 183 180 179 177 174 169 161 155 156 161 163 163 163 165 169 177 187
103 115 105 86 78 79 87 69 44 30 35 51 55 45 30 29 37 40 37 32 25 21 23 14 358 358 2 359 329 267 245 210 192 187 184 176 167 165 171 176 175 171 168 166 164 162 159 158 158 162 172 185 194 201 207 209 206 205 207 208 204 201 205 205 199 193 190 189 191 194 193 189 188 187 186 184 177 169 162 158 157 159 159 157 157 158 155
77 93 88 79 62 40 46 64 56 40 40 45 44 36 25 26 29 26 22 20 15 12 18 19 10 4 5 4 359 346 327 286 213 192 185 182 181 183 186 185 181 178 176 173 172 172 168 165 168 175 185 195 195 188 182 185 189 191 192 194 192 189 197 203 202 199 197 200 206 206 202 198 195 192 190 187 183 177 173 169 167 166 164 159 158 157 153
57 56 69 84 87 70 60 65 61 48 39 34 34 31 24 24 26 20 13 10 7 7 10 11 13 16 7 356 353 348 335 316 243 201 198 194 188 188 191 190 185 183 183 181 178 175 169 168 173 174 171 174 175 172 170 170 172 174 181 195 209 209 204 205 204 201 202 208 210 208 206 204 200 196 193 189 184 182 182 179 175 171 168 163 160 161 161
64 63 69 80 92 87 67 52 43 39 30 24 27 28 26 23 18 10 6 5 4 4 1 359 3 8 4 356 351 344 332 313 265 231 218 202 189 187 192 193 189 187 186 183 179 176 172 170 164 152 145 152 160 162 162 159 158 165 180 197 216 224 216 208 203 200 207 216 217 215 211 204 197 193 191 189 186 185 183 180 176 174 172 169 167 168 170
64 65 69 66 60 59 55 46 39 35 26 23 26 24 20 20 16 5 357 356 358 359 354 349 351 353 353 354 350 344 337 322 292 261 234 213 203 198 193 186 182 183 179 169 165 165 161 154 146 137 135 141 145 147 154 159 162 177 194 207 220 226 221 215 210 208 212 218 216 208 200 193 190 188 186 184 186 187 184 179 177 177 175 173 174 175 179
56 51 52 50 51 58 57 50 42 32 22 22 25 17 10 14 13 359 348 346 347 346 344 343 344 344 344 344 341 339 341 340 330 314 266 201 206 200 190 182 178 174 161 153 155 159 157 153 149 146 146 146 145 151 165 176 184 195 204 208 211 213 210 206 206 207 208 208 202 193 185 180 178 177 175 178 185 188 183 177 175 177 178 175 177 183 192
57 47 39 31 32 39 38 35 34 25 16 19 21 11 2 6 1 344 336 332 323 325 334 338 337 334 333 334 333 330 329 335 13 59 79 84 98 154 174 175 168 159 151 151 156 158 156 150 142 138 138 141 152 173 189 195 196 197 199 200 199 199 198 197 199 203 202 199 195 191 186 181 178 176 179 185 189 187 180 175 175 178 179 178 181 190 203
59 50 38 31 32 29 20 15 19 15 6 5 5 355 352 358 352 337 326 322 321 325 326 325 329 333 333 333 331 325 314 289 124 102 105 109 112 124 137 140 137 133 130 128 128 126 117 107 106 116 132 151 177 197 205 206 201 197 195 195 192 189 190 193 198 201 199 197 196 195 192 190 190 189 188 186 183 178 174 173 175 179 180 183 187 193 198
59 64 55 49 54 47 26 6 0 358 350 343 340 339 340 339 332 326 329 336 341 338 331 332 339 342 340 339 335 327 307 235 177 147 150 149 140 135 137 137 132 126 120 117 123 128 123 120 133 152 166 178 189 195 197 198 197 193 190 188 184 181 184 189 194 196 196 195 196 197 197 197 196 194 189 185 181 177 172 171 175 178 180 183 187 185 183
38 37 25 20 24 23 16 7 357 351 345 334 326 324 322 319 319 326 335 345 351 346 343 344 344 341 338 336 336 329 308 254 218 190 170 163 154 146 144 143 139 134 131 137 149 154 155 158 166 171 172 175 179 181 177 178 179 176 174 175 176 177 182 186 189 191 192 192 191 192 194 191 187 189 193 190 184 179 174 172 175 179 179 180 181 180 178
24 18 8 4 359 351 350 351 342 334 331 323 317 324 328 328 330 333 335 339 343 345 344 340 335 332 331 326 319 313 297 263 220 188 173 166 160 154 150 146 143 139 136 142 156 162 162 164 167 166 162 161 161 158 158 159 158 159 165 171 174 175 176 178 180 182 184 187 187 185 179 168 159 169 186 188 183 181 180 178 180 184 185 184 183 180 181
13 7 355 346 342 338 337 335 330 332 336 334 332 333 329 326 329 333 333 335 335 334 332 328 322 316 312 307 303 301 293 268 225 194 179 167 158 156 153 148 144 141 139 148 160 160 154 153 155 152 148 147 143 138 138 139 141 150 161 168 171 171 168 167 171 177 179 181 182 181 181 183 184 188 196 198 193 193 192 187 185 189 193 192 189 187 189
355 352 348 342 338 334 331 330 333 337 341 338 334 328 321 319 322 324 322 321 321 319 316 313 306 297 295 296 299 306 304 293 267 238 208 175 159 155 158 158 156 157 160 161 159 152 145 145 147 142 138 137 132 126 127 134 143 155 165 169 170 171 171 171 173 178 181 182 185 189 197 204 199 195 199 202 199 198 199 196 191 193 196 197 196 197 194
348 341 337 336 335 328 322 324 329 328 322 314 313 319 322 325 326 323 316 310 309 308 306 302 298 294 289 281 258 204 190 183 168 191 237 217 170 153 155 167 169 164 158 155 154 151 148 148 146 138 134 134 130 127 135 148 155 155 163 173 178 179 184 188 188 186 185 187 191 197 202 206 205 202 206 211 210 209 210 206 196 194 196 197 199 200 198
337 329 325 323 321 312 306 309 315 315 312 308 306 314 325 332 330 322 313 307 307 308 309 306 299 291 283 275 250 205 191 185 170 166 187 222 198 147 136 148 158 154 150 151 151 150 151 152 149 143 141 144 146 147 149 152 146 135 142 175 195 201 203 201 198 197 198 199 203 207 209 212 212 212 216 222 227 228 223 211 202 199 196 196 199 204 204
331 330 329 326 320 312 310 312 313 315 318 317 311 316 333 337 330 320 312 310 312 316 320 317 305 293 287 283 262 204 173 168 164 160 165 190 205 119 96 121 150 151 149 149 148 145 147 151 151 150 150 150 148 146 144 144 141 128 113 130 186 207 214 216 214 213 212 208 210 214 217 218 219 221 221 222 227 231 228 219 214 210 202 197 201 207 210
332 336 335 331 325 324 328 328 324 326 331 331 330 336 340 337 332 328 326 326 328 332 336 336 329 319 311 291 210 130 97 104 119 124 122 138 175 162 122 135 153 154 150 149 149 147 147 148 148 150 150 148 145 146 149 151 150 135 109 94 92 99 140 208 222 225 224 221 220 222 223 222 222 223 222 220 221 225 227 226 225 221 211 202 200 203 209
335 339 338 333 328 333 338 339 337 337 339 337 338 339 337 334 337 342 341 339 341 342 345 353 357 351 345 353 90 102 97 110 124 123 120 145 211 215 176 152 151 155 158 157 153 151 153 154 151 149 149 148 146 151 158 159 151 131 117 110 95 83 80 80 85 147 223 229 232 233 232 229 224 221 219 221 224 228 231 231 229 225 220 214 210 210 215
335 340 338 333 334 340 342 338 333 330 329 331 335 339 340 342 346 346 343 341 341 337 342 360 10 0 348 346 11 92 113 129 141 142 139 147 201 204 169 155 153 161 168 166 157 152 155 155 151 150 154 157 158 163 174 178 166 136 131 130 116 90 70 57 48 40 29 5 313 271 252 241 234 229 228 229 232 234 234 234 234 231 225 217 211 210 211
336 340 339 336 338 342 341 335 331 330 331 335 339 342 348 355 352 345 341 345 345 341 350 8 14 4 353 347 345 22 150 173 186 181 167 153 139 153 162 163 164 168 172 170 163 158 159 160 159 161 164 166 170 189 213 210 177 152 142 133 109 63 27 8 355 350 347 343 339 331 306 266 246 238 233 229 226 224 222 225 231 231 222 210 202 200 199
331 334 338 339 339 342 344 347 350 347 341 340 340 340 344 352 350 342 342 352 350 347 3 16 9 4 10 9 324 208 164 207 230 231 224 223 187 163 168 172 170 169 172 172 166 162 164 168 171 170 167 165 176 197 204 179 158 152 152 147 3 343 336 327 323 331 337 332 326 329 326 290 246 229 216 201 194 191 188 198 215 217 209 202 200 200 199
322 323 330 337 340 343 350 358 4 358 348 339 328 323 329 337 339 337 342 351 349 352 17 35 20 6 21 65 157 152 146 165 230 240 233 228 192 171 176 179 175 172 176 179 175 174 177 180 178 173 166 166 172 175 165 161 164 168 176 210 269 283 286 284 280 292 315 327 334 343 344 311 227 209 197 186 185 187 186 190 199 202 199 199 205 210 212
305 305 316 331 337 340 345 351 356 353 338 324 314 314 323 333 341 342 345 349 348 348 1 16 17 16 41 65 93 138 154 164 179 193 190 185 174 176 186 190 186 186 192 191 185 185 189 189 185 178 172 170 171 171 170 174 183 191 199 222 250 260 261 257 252 258 276 290 306 338 353 352 234 205 198 187 179 177 177 179 181 183 185 192 200 207 211
293 294 304 322 330 333 337 342 342 336 328 321 317 318 326 337 344 344 343 345 347 346 347 353 1 9 17 19 17 49 152 185 256 206 186 181 177 183 192 194 195 200 204 197 188 189 195 196 190 186 182 179 180 181 181 185 195 205 212 230 255 264 262 255 247 244 254 270 274 289 316 327 290 228 210 194 179 171 171 174 175 175 178 185 188 187 188
293 290 292 303 311 316 321 322 318 318 320 317 313 314 321 326 330 335 338 339 339 340 343 351 359 4 3 359 350 344 339 333 321 234 197 189 186 189 195 199 201 204 204 198 192 194 200 200 198 197 196 194 194 197 198 200 204 208 215 230 249 261 261 254 245 242 247 259 266 269 271 272 263 247 231 217 202 187 178 177 178 180 183 185 185 182 183
302 289 281 280 286 292 297 301 304 307 307 303 300 303 309 307 303 310 323 328 324 322 330 342 353 356 358 0 356 341 327 318 314 260 214 201 196 195 198 204 209 211 211 210 208 209 211 210 210 210 210 209 210 213 214 215 218 219 217 217 221 228 233 234 239 245 250 252 253 251 248 250 254 248 234 223 214 203 192 185 182 181 184 189 192 192 192
323 307 293 286 282 282 284 287 289 290 292 293 292 292 294 293 293 299 308 312 307 303 305 310 324 336 343 349 350 337 309 247 248 275 250 224 214 211 211 212 214 216 219 222 222 221 221 221 220 219 218 218 220 222 222 222 225 229 228 224 227 236 233 225 234 246 245 238 231 227 223 220 229 236 230 223 220 217 212 206 200 193 191 198 205 207 203